[[{"header":{"parameterUnit":"m.s-1","parameterCategory":1,"la1":30.2991,"la2":30.254,"lo1":-89.0895,"lo2":-89.0444,"dy":0.0017,"dx":0.0017,"nx":28,"ny":28,"refTime":"2024-09-03T03:00:00:Z","depth":0,"parameterNumber":2,"parameterNumberName":"U-component_of_WINDS"},"data":[0,0,0,0,0,0,0,0,0,0,0,0,0,0,0,0,0,0,0,0,0,0,0,0,0,0,0,0,0,0,0,0,0,0,0,0,0,0,0,0,0,0,0,0,0,0,0,0,0,0,0,0,0,0,0,0,0,0,-3.2822,-3.2823,0,-3.2921,-3.2923,-3.2924,-3.2923,-3.2922,-3.292,-3.2919,-3.3024,-3.3028,-3.3032,0,0,0,0,0,0,0,0,0,0,0,0,0,-3.2637,-3.2641,-3.2822,-3.2823,-3.2825,-3.2921,-3.2923,-3.2924,-3.2923,-3.2922,-3.292,-3.2919,-3.3023,-3.3028,-3.3032,0,0,0,0,0,0,0,0,0,0,0,0,0,-3.2725,-3.2642,-3.2822,-3.2836,-3.2838,-3.2921,-3.2923,-3.2924,-3.2924,-3.2922,-3.292,-3.2918,-3.3021,-3.3027,-3.3033,-3.311,0,0,-3.3051,-3.3054,0,0,0,0,0,0,0,0,-3.272,-3.2732,-3.2833,-3.2835,-3.2838,-3.2908,-3.2896,-3.2987,-3.2924,-3.2891,-3.2919,-3.2917,-3.2987,-3.2996,-3.3019,-3.3115,-3.3119,-3.3052,-3.3056,-3.3058,-3.306,0,0,0,0,0,0,0,-3.2714,-3.2728,-3.2862,-3.2834,-3.2837,-3.2839,-3.2849,-3.2913,-3.2949,-3.2894,-3.2894,-3.2906,-3.2988,-3.3013,-3.3021,-3.3121,-3.3052,-3.3057,-3.3061,-3.3063,-3.3287,-3.3289,0,0,0,0,0,0,-3.2705,-3.2723,-3.2858,-3.2865,-3.2773,-3.2844,-3.2855,-3.2887,-3.2948,-3.2956,-3.2907,-3.2905,-3.3004,-3.3014,-3.3025,-3.3119,-3.3058,-3.3064,-3.3067,-3.3284,-3.3287,-3.329,0,0,0,0,0,0,-3.2701,-3.2717,-3.2854,-3.2794,-3.2811,-3.2849,-3.2885,-3.289,-3.2915,-3.2959,-3.2965,-3.2926,-3.3003,-3.3017,-3.3089,-3.3123,-3.3067,-3.3072,-3.3282,-3.3285,-3.3288,-3.3308,0,0,0,0,0,0,-3.2695,-3.2715,-3.2743,-3.2794,-3.2815,-3.2915,-3.2887,-3.2894,-3.2925,-3.2923,-3.2978,-3.2985,-3.3002,-3.308,-3.3095,-3.313,-3.3077,-3.3279,-3.3283,-3.3287,-3.3304,-3.3311,-3.3317,0,0,0,0,0,-3.2689,-3.2745,-3.2745,-3.2761,-3.285,-3.2917,-3.2928,-3.2946,-3.2928,-3.2957,-3.2986,-3.2983,-3.3117,-3.3087,-3.3104,-3.3142,-3.3277,-3.3282,-3.3287,-3.3301,-3.331,-3.3317,0,0,0,0,0,0,-3.2697,-3.2752,-3.2752,-3.2826,-3.2867,-3.2916,-3.2953,-3.2955,-3.3002,-3.2999,-3.3021,-3.3033,-3.3105,-3.3131,-3.3097,-3.322,-3.3195,-3.3204,-3.32,-3.3209,-3.3215,-3.3206,-3.3082,0,0,0,0,0,-3.2708,-3.2756,-3.2802,-3.2863,-3.2883,-3.2915,-3.2945,-3.2955,-3.2999,-3.3016,-3.305,-3.3093,-3.3145,-3.3179,-3.3229,-3.3309,-3.3321,-3.3344,-3.335,-3.3356,-3.3362,-3.3408,-3.3418,-3.3307,-3.3307,-3.3307,0,0,-3.2729,-3.2765,-3.2794,-3.2865,-3.2898,-3.2949,-3.2929,-3.2983,-3.3022,-3.3025,-3.3094,-3.3121,-3.3171,-3.3248,-3.3283,-3.3272,-3.3396,-3.3362,-3.3366,-3.337,-3.3414,-3.3424,-3.3434,-3.331,-3.331,-3.3309,0,0,-3.2795,-3.2827,-3.2881,-3.2915,-3.2965,-3.2986,-3.3,-3.305,-3.3068,-3.3138,-3.3142,-3.3189,-3.3278,-3.3314,-3.3344,-3.3427,-3.3427,-3.3444,-3.3477,-3.3521,-3.353,-3.3538,-3.3567,-3.3577,-3.3451,-3.3451,-3.3451,0,-3.2816,-3.289,-3.291,-3.2964,-3.2996,-3.3002,-3.3058,-3.309,-3.3155,-3.3177,-3.3164,-3.3277,-3.3311,-3.3396,-3.3417,-3.3441,-3.3458,-3.3436,-3.3527,-3.3535,-3.3543,-3.3571,-3.3582,-3.3452,-3.3452,-3.3452,-3.3452,0,-3.2914,-3.2966,-3.3005,-3.3066,-3.3103,-3.3158,-3.3187,-3.3223,-3.3232,-3.3255,-3.3328,-3.337,-3.343,-3.3452,-3.3461,-3.3539,-3.353,-3.3522,-3.3496,-3.3554,-3.3581,-3.3592,-3.3454,-3.3454,-3.3453,-3.3453,0,0,-3.2983,-3.3056,-3.307,-3.3098,-3.3156,-3.3197,-3.3255,-3.3312,-3.3342,-3.3388,-3.3437,-3.3514,-3.3507,-3.3541,-3.3555,-3.3594,-3.3657,-3.3581,-3.3583,-3.3593,-3.3747,-3.3751,-3.3763,-3.3659,-3.3661,-3.3663,-3.3742,0,-3.3054,-3.3152,-3.3173,-3.326,-3.3309,-3.3317,-3.3367,-3.3409,-3.3434,-3.3481,-3.351,-3.3563,-3.355,-3.3571,-3.361,-3.3641,-3.3688,-3.3636,-3.3705,-3.3707,-3.3689,-3.3777,-3.3781,-3.3854,-3.3753,-3.3755,-3.3756,0,-3.3147,-3.3194,-3.3286,-3.3338,-3.3359,-3.3404,-3.3459,-3.3504,-3.3553,-3.3568,-3.3608,-3.3619,-3.3681,-3.3655,-3.3741,-3.3705,-3.3735,-3.3756,-3.3759,-3.3764,-3.3733,-3.3783,-3.3877,-3.3887,-3.3773,-3.3771,-3.377,0,-3.3187,-3.3274,-3.334,-3.3365,-3.3428,-3.3459,-3.3487,-3.3533,-3.3567,-3.3617,-3.364,-3.3697,-3.3727,-3.3772,-3.3799,-3.3778,-3.3883,-3.3859,-3.3898,-3.3898,-3.3917,-3.3915,-3.4016,-3.3941,-3.3941,-3.394,-3.394,0,-3.3262,-3.3317,-3.3359,-3.3399,-3.3462,-3.3488,-3.355,-3.3578,-3.362,-3.3668,-3.368,-3.3725,-3.3758,-3.3808,-3.383,-3.3899,-3.3913,-3.3928,-3.3933,-3.3925,-3.3923,-3.3943,-3.3938,-3.3943,-3.3943,-3.3942,-3.3942,0,-3.3316,-3.3346,-3.3418,-3.3473,-3.3488,-3.3532,-3.3579,-3.362,-3.3647,-3.3707,-3.3722,-3.3764,-3.3824,-3.3856,-3.3931,-3.3946,-3.4022,-3.4025,-3.4005,-3.4007,-3.4043,-3.4039,-3.4158,-3.4175,-3.4091,-3.4091,-3.4092,0,-3.336,-3.3403,-3.3462,-3.3494,-3.3523,-3.3575,-3.3609,-3.3638,-3.3674,-3.3734,-3.3768,-3.3829,-3.3878,-3.3974,-3.4012,-3.407,-3.4073,-3.4112,-3.4082,-3.4074,-3.4072,-3.4068,-3.4073,-3.4116,-3.4116,-3.4117,-3.4118,0,-3.3435,-3.3449,-3.3498,-3.3553,-3.3594,-3.3639,-3.3684,-3.3711,-3.3747,-3.3787,-3.3848,-3.3886,-3.3964,-3.4024,-3.4085,-3.4117,-3.4123,-3.4127,-3.4139,-3.4131,-3.4116,-3.4123,-3.4017,-3.4123,-3.4123,-3.4122,-3.4122,-3.4122,-3.3485,-3.3523,-3.3571,-3.3627,-3.3663,-3.3706,-3.3746,-3.3779,-3.3829,-3.3893,-3.3908,-3.3973,-3.4024,-3.4107,-3.414,-3.4192,-3.4185,-3.4202,-3.4206,-3.4209,-3.421,-3.411,-3.4204,-3.4204,-3.4204,-3.4204,-3.4204,0,-3.356,-3.3592,-3.3642,-3.3704,-3.3748,-3.3752,-3.3802,-3.3839,-3.3895,-3.3941,-3.399,-3.4061,-3.412,-3.4165,-3.4226,-3.4259,-3.4264,-3.4274,-3.427,-3.4278,-3.4214,-3.4197,-3.4269,-3.4269,-3.4269,-3.4269,-3.4269,-3.4269,-3.3603,-3.3669,-3.3689,-3.3774,-3.3806,-3.3868,-3.3897,-3.3937,-3.3974,-3.4052,-3.4101,-3.4129,-3.4176,-3.4241,-3.4296,-3.4308,-3.4329,-3.4338,-3.435,-3.4289,-3.4282,-3.4275,-3.4259,-3.4343,-3.4343,-3.4409,-3.441,-3.441]},{"header":{"parameterUnit":"m.s-1","parameterCategory":1,"la1":30.2991,"la2":30.254,"lo1":-89.0895,"lo2":-89.0444,"dy":0.0017,"dx":0.0017,"nx":28,"ny":28,"refTime":"2024-09-03T03:00:00:Z","depth":0,"parameterNumber":3,"parameterNumberName":"V-component_of_WINDS"},"data":[0,0,0,0,0,0,0,0,0,0,0,0,0,0,0,0,0,0,0,0,0,0,0,0,0,0,0,0,0,0,0,0,0,0,0,0,0,0,0,0,0,0,0,0,0,0,0,0,0,0,0,0,0,0,0,0,0,0,3.0571,3.0572,0,3.0653,3.0654,3.0654,3.0757,3.0759,3.0761,3.0762,3.084,3.084,3.0841,0,0,0,0,0,0,0,0,0,0,0,0,0,3.0502,3.0503,3.0571,3.0572,3.0573,3.0652,3.0654,3.0655,3.0757,3.0759,3.0761,3.0763,3.084,3.084,3.0841,0,0,0,0,0,0,0,0,0,0,0,0,0,3.0552,3.0503,3.0571,3.0634,3.0641,3.0652,3.0654,3.0655,3.0757,3.0759,3.0762,3.0764,3.0839,3.084,3.0841,3.0795,0,0,3.0843,3.0844,0,0,0,0,0,0,0,0,3.0549,3.0555,3.0624,3.063,3.0637,3.0698,3.0658,3.0702,3.0756,3.0712,3.0762,3.0765,3.079,3.0795,3.0805,3.0799,3.0802,3.0843,3.0844,3.0844,3.0844,0,0,0,0,0,0,0,3.0546,3.0552,3.0603,3.0625,3.0633,3.0657,3.0667,3.0666,3.0736,3.0716,3.0724,3.0733,3.0794,3.0804,3.0807,3.0804,3.0843,3.0844,3.0844,3.0845,3.0766,3.0764,0,0,0,0,0,0,3.0533,3.0548,3.0601,3.0606,3.0599,3.0657,3.0668,3.0676,3.0736,3.0748,3.073,3.0737,3.0801,3.0806,3.081,3.0762,3.0844,3.0845,3.0845,3.0769,3.0766,3.0763,0,0,0,0,0,0,3.0531,3.0537,3.0598,3.0579,3.0589,3.0655,3.0663,3.0676,3.0685,3.0747,3.0759,3.0727,3.0803,3.0809,3.0799,3.0766,3.0845,3.0846,3.0772,3.0768,3.0765,3.0663,0,0,0,0,0,0,3.0529,3.0536,3.052,3.0578,3.0589,3.0586,3.0661,3.0676,3.0687,3.0697,3.0748,3.0758,3.0806,3.0797,3.08,3.0768,3.0846,3.0775,3.077,3.0766,3.067,3.0656,3.0645,0,0,0,0,0,3.0526,3.0486,3.0518,3.0524,3.0571,3.0583,3.059,3.0647,3.0684,3.0668,3.0708,3.0757,3.077,3.0796,3.0799,3.0767,3.0777,3.0772,3.0766,3.0675,3.0659,3.0645,0,0,0,0,0,0,3.0419,3.0495,3.0531,3.0509,3.054,3.0601,3.0582,3.0627,3.0646,3.0654,3.0722,3.0733,3.0714,3.074,3.0768,3.0727,3.0781,3.0775,3.0711,3.0696,3.0683,3.0677,3.0847,0,0,0,0,0,3.0394,3.0399,3.0464,3.0439,3.0452,3.0515,3.0522,3.0564,3.0597,3.0609,3.0649,3.0678,3.0689,3.0694,3.0707,3.0675,3.0687,3.0655,3.0643,3.0632,3.0626,3.0612,3.0598,3.0744,3.0745,3.0745,0,0,3.0339,3.0382,3.038,3.0418,3.0447,3.045,3.0524,3.0524,3.0526,3.0609,3.0602,3.0632,3.0669,3.0648,3.0641,3.0669,3.0589,3.0625,3.0616,3.0616,3.0604,3.059,3.0578,3.0741,3.0741,3.0742,0,0,3.0243,3.0275,3.0258,3.0286,3.0329,3.0371,3.0367,3.0423,3.0446,3.0441,3.0504,3.0508,3.0525,3.0549,3.0563,3.0479,3.0524,3.0481,3.0415,3.0401,3.0389,3.0379,3.0349,3.0337,3.0476,3.0475,3.0475,0,3.0169,3.0178,3.0243,3.024,3.0254,3.0333,3.0315,3.0339,3.0382,3.039,3.0423,3.0447,3.0477,3.0463,3.0443,3.0453,3.0449,3.0475,3.0386,3.0377,3.0368,3.034,3.0328,3.047,3.047,3.0471,3.0472,0,3.0086,3.0091,3.0071,3.0115,3.0128,3.0117,3.018,3.0185,3.0227,3.0265,3.026,3.03,3.0323,3.0323,3.0362,3.0315,3.0332,3.0374,3.0428,3.0348,3.0322,3.0312,3.0462,3.0464,3.0465,3.0467,0,0,2.992,3.0003,2.9994,3.0016,3.007,3.0075,3.0068,3.0094,3.0097,3.0125,3.0121,3.0135,3.0176,3.0192,3.0235,3.0222,3.0153,3.0266,3.0268,3.0243,3.0103,3.007,3.0056,3.0185,3.0183,3.0181,3.01,0,2.9832,2.9827,2.9887,2.9865,2.987,2.9946,2.9941,2.9973,3.001,3.0019,3.0059,3.0068,3.0121,3.0131,3.0122,3.0163,3.0125,3.017,3.0179,3.0179,3.0166,3.0043,3.0008,2.9928,3.009,3.0088,3.0087,0,2.9728,2.9754,2.9733,2.9791,2.9795,2.9789,2.9818,2.9827,2.9865,2.9893,2.9913,2.9963,2.996,3.0014,3.0011,3.004,3.0048,3.0069,3.0067,3.0068,3.0127,3.004,2.9905,2.9892,3.0072,3.0073,3.0075,0,2.9609,2.9638,2.963,2.9646,2.9713,2.9707,2.9735,2.9777,2.9788,2.9814,2.9822,2.9845,2.9857,2.9874,2.993,2.9964,2.9919,2.9978,2.9941,2.9939,2.9926,2.9926,2.9789,2.9933,2.9934,2.9934,2.9934,0,2.9503,2.9487,2.9578,2.9572,2.9556,2.9626,2.9608,2.9643,2.968,2.9682,2.9749,2.9749,2.9824,2.9832,2.9875,2.9866,2.9871,2.9892,2.9903,2.9885,2.9882,2.989,2.9896,2.9931,2.9931,2.9932,2.9933,0,2.9366,2.9426,2.9422,2.9488,2.9504,2.9489,2.9545,2.9542,2.9585,2.9587,2.9591,2.9657,2.967,2.9728,2.9755,2.9784,2.9759,2.9783,2.9746,2.9754,2.9714,2.9716,2.9575,2.956,2.9715,2.9713,2.9712,0,2.9294,2.9284,2.935,2.9357,2.9382,2.9393,2.9407,2.9475,2.9486,2.9532,2.9523,2.9543,2.9562,2.958,2.9629,2.965,2.9674,2.9623,2.9677,2.966,2.9672,2.9672,2.9671,2.961,2.9608,2.9607,2.9606,0,2.9159,2.9191,2.9209,2.9237,2.9253,2.9278,2.9307,2.9309,2.9386,2.9394,2.9411,2.9426,2.9455,2.9473,2.9503,2.953,2.958,2.9589,2.9581,2.9562,2.9541,2.9551,2.9713,2.9591,2.9592,2.9594,2.9594,2.9595,2.9052,2.9047,2.9094,2.9112,2.9142,2.9169,2.917,2.9214,2.9229,2.926,2.9299,2.931,2.9351,2.9397,2.9421,2.943,2.9457,2.9446,2.9443,2.9439,2.943,2.9541,2.9435,2.9436,2.9436,2.9437,2.9437,0,2.8921,2.8956,2.8972,2.9012,2.9027,2.9076,2.9112,2.912,2.9129,2.9164,2.9183,2.9202,2.9221,2.9273,2.9297,2.9294,2.9317,2.9298,2.9298,2.9303,2.9404,2.9408,2.9278,2.9278,2.9278,2.9278,2.9278,2.9278,2.8854,2.8849,2.8886,2.8896,2.8931,2.8944,2.896,2.8985,2.9014,2.9033,2.905,2.9085,2.9126,2.9154,2.9174,2.9189,2.9193,2.9166,2.9188,2.9281,2.9296,2.931,2.9314,2.9167,2.9167,2.9086,2.9086,2.9085]}]]